AMU963 VVNB-VMMC

Flight info

Callsign AMU963
Flight time 1h 11m
Altitude 35000
Route PHUTA2A PHUTA W3 CBI DCT RIKMO DCT LH/K0876S1070 R200 BIGRO
Aircraft A321/M-SDE3FGHIRWY/LB1

Departure

Time 2026-05-06 09:33
Airport Noi Bai International Airport (VVNB)

Arrival

Time 2026-05-06 10:44
Airport Macau International Airport (VMMC)
Time Latitude Longitude Altitude Speed Heading
2026-05-06 09:04 21.21785 105.79720 49 ft 0 kts 197°
2026-05-06 09:22 21.21787 105.79721 49 ft 1 kts 197°
2026-05-06 09:22 21.21804 105.79726 47 ft 3 kts 197°
2026-05-06 09:22 21.21824 105.79733 44 ft 3 kts 197°
2026-05-06 09:23 21.21843 105.79739 46 ft 3 kts 197°
2026-05-06 09:23 21.21860 105.79744 44 ft 2 kts 197°
2026-05-06 09:23 21.21876 105.79752 45 ft 3 kts 234°
2026-05-06 09:23 21.21879 105.79766 49 ft 3 kts 291°
2026-05-06 09:24 21.21871 105.79786 44 ft 3 kts 296°
2026-05-06 09:24 21.21865 105.79799 47 ft 1 kts 287°
2026-05-06 09:26 21.21866 105.79795 46 ft 2 kts 287°
2026-05-06 09:26 21.21872 105.79774 44 ft 4 kts 287°
2026-05-06 09:26 21.21883 105.79738 49 ft 6 kts 287°
2026-05-06 09:27 21.21897 105.79688 47 ft 8 kts 287°
2026-05-06 09:27 21.21916 105.79627 49 ft 10 kts 287°
2026-05-06 09:27 21.21937 105.79553 49 ft 11 kts 287°
2026-05-06 09:27 21.21962 105.79468 49 ft 13 kts 287°
2026-05-06 09:28 21.21990 105.79373 49 ft 14 kts 287°
2026-05-06 09:28 21.22020 105.79268 49 ft 15 kts 287°
2026-05-06 09:28 21.22049 105.79172 49 ft 9 kts 288°
2026-05-06 09:28 21.22093 105.79140 49 ft 9 kts 11°
2026-05-06 09:29 21.22159 105.79162 49 ft 11 kts 16°
2026-05-06 09:29 21.22231 105.79185 50 ft 11 kts 16°
2026-05-06 09:29 21.22312 105.79210 50 ft 13 kts 16°
2026-05-06 09:29 21.22407 105.79240 49 ft 15 kts 16°
2026-05-06 09:30 21.22485 105.79274 49 ft 7 kts 58°
2026-05-06 09:30 21.22473 105.79279 49 ft 3 kts 202°
2026-05-06 09:30 21.22452 105.79269 49 ft 4 kts 195°
2026-05-06 09:30 21.22421 105.79253 49 ft 6 kts 210°
2026-05-06 09:31 21.22381 105.79234 48 ft 7 kts 200°
2026-05-06 09:31 21.22332 105.79226 48 ft 8 kts 174°
2026-05-06 09:31 21.22291 105.79262 48 ft 9 kts 118°
2026-05-06 09:31 21.22269 105.79330 49 ft 11 kts 107°
2026-05-06 09:32 21.22240 105.79432 48 ft 23 kts 107°
2026-05-06 09:32 21.22117 105.79855 47 ft 96 kts 107°
2026-05-06 09:32 21.21856 105.80753 50 ft 153 kts 107°
2026-05-06 09:32 21.21524 105.81922 490 ft 164 kts 111°
2026-05-06 09:33 21.21209 105.83080 1075 ft 161 kts 109°
2026-05-06 09:33 21.20899 105.84240 1650 ft 162 kts 109°
2026-05-06 09:33 21.20580 105.85387 2236 ft 162 kts 110°
2026-05-06 09:33 21.20247 105.86527 2742 ft 163 kts 112°
2026-05-06 09:34 21.19910 105.87693 3247 ft 166 kts 111°
2026-05-06 09:34 21.19552 105.88945 3461 ft 187 kts 110°
2026-05-06 09:34 21.19148 105.90348 3724 ft 205 kts 110°
2026-05-06 09:34 21.18704 105.91853 4019 ft 221 kts 111°
2026-05-06 09:35 21.18222 105.93507 4188 ft 246 kts 110°
2026-05-06 09:35 21.17701 105.95338 4616 ft 264 kts 111°
2026-05-06 09:35 21.16893 105.97131 5138 ft 272 kts 131°
2026-05-06 09:35 21.15485 105.98450 5715 ft 276 kts 149°
2026-05-06 09:36 21.13953 105.99746 6352 ft 288 kts 134°
2026-05-06 09:36 21.12929 106.01617 7015 ft 296 kts 114°
2026-05-06 09:36 21.12115 106.03657 7686 ft 300 kts 116°
2026-05-06 09:36 21.11243 106.05708 8358 ft 304 kts 117°
2026-05-06 09:37 21.10331 106.07768 9046 ft 308 kts 117°
2026-05-06 09:37 21.09383 106.09835 9740 ft 311 kts 118°
2026-05-06 09:37 21.08418 106.11928 10285 ft 318 kts 117°
2026-05-06 09:37 21.07433 106.14099 10473 ft 339 kts 117°
2026-05-06 09:38 21.06372 106.16440 10619 ft 360 kts 117°
2026-05-06 09:38 21.05244 106.18924 10729 ft 381 kts 117°
2026-05-06 09:38 21.04062 106.21535 10854 ft 399 kts 117°
2026-05-06 09:38 21.02829 106.24263 10973 ft 416 kts 117°
2026-05-06 09:39 21.01550 106.27091 11249 ft 426 kts 117°
2026-05-06 09:39 21.00251 106.29959 11743 ft 431 kts 117°
2026-05-06 09:39 20.98940 106.32857 12261 ft 434 kts 117°
2026-05-06 09:39 20.97636 106.35741 12779 ft 438 kts 116°
2026-05-06 09:40 20.96307 106.38683 13385 ft 440 kts 116°
2026-05-06 09:40 20.94969 106.41640 13897 ft 443 kts 116°
2026-05-06 09:40 20.92366 106.47402 14821 ft 449 kts 116°
2026-05-06 09:41 20.91028 106.50439 15287 ft 452 kts 115°
2026-05-06 09:41 20.89705 106.53501 15739 ft 455 kts 115°
2026-05-06 09:41 20.88401 106.56548 16163 ft 458 kts 115°
2026-05-06 09:41 20.87077 106.59654 16594 ft 460 kts 115°
2026-05-06 09:42 20.85742 106.62774 17017 ft 463 kts 115°
2026-05-06 09:42 20.84389 106.65909 17420 ft 466 kts 115°
2026-05-06 09:42 20.83141 106.69118 17809 ft 469 kts 108°
2026-05-06 09:42 20.82357 106.72502 18150 ft 472 kts 98°
2026-05-06 09:43 20.82104 106.76004 18455 ft 474 kts 89°
2026-05-06 09:43 20.82372 106.79524 18776 ft 475 kts 82°
2026-05-06 09:43 20.82793 106.83035 19099 ft 478 kts 82°
2026-05-06 09:43 20.83201 106.86517 19414 ft 480 kts 82°
2026-05-06 09:44 20.83612 106.90066 19730 ft 482 kts 82°
2026-05-06 09:44 20.84018 106.93624 20035 ft 484 kts 82°
2026-05-06 09:44 20.84427 106.97211 20335 ft 486 kts 82°
2026-05-06 09:44 20.84841 107.00808 20637 ft 489 kts 82°
2026-05-06 09:45 20.85261 107.04421 20930 ft 491 kts 82°
2026-05-06 09:45 20.85684 107.08052 21227 ft 493 kts 82°
2026-05-06 09:45 20.86107 107.11694 21520 ft 495 kts 82°
2026-05-06 09:45 20.86527 107.15349 21807 ft 497 kts 82°
2026-05-06 09:46 20.86948 107.19026 22087 ft 499 kts 82°
2026-05-06 09:46 20.87362 107.22665 22359 ft 501 kts 82°
2026-05-06 09:46 20.87780 107.26370 22632 ft 503 kts 82°
2026-05-06 09:46 20.88200 107.30089 22902 ft 505 kts 82°
2026-05-06 09:47 20.88622 107.33823 23172 ft 507 kts 82°
2026-05-06 09:47 20.89048 107.37575 23446 ft 509 kts 82°
2026-05-06 09:47 20.89479 107.41345 23696 ft 511 kts 82°
2026-05-06 09:47 20.89907 107.45116 23933 ft 512 kts 83°
2026-05-06 09:48 20.90329 107.48888 24252 ft 510 kts 83°
2026-05-06 09:48 20.90750 107.52658 24583 ft 510 kts 83°
2026-05-06 09:48 20.91165 107.56367 24905 ft 509 kts 83°
2026-05-06 09:48 20.91585 107.60116 25237 ft 508 kts 83°
2026-05-06 09:49 20.92003 107.63864 25572 ft 507 kts 83°
2026-05-06 09:49 20.92419 107.67608 25914 ft 507 kts 83°
2026-05-06 09:49 20.92834 107.71347 26264 ft 506 kts 83°
2026-05-06 09:49 20.93247 107.75079 26618 ft 505 kts 83°
2026-05-06 09:50 20.93660 107.78805 26978 ft 504 kts 83°
2026-05-06 09:50 20.94073 107.82528 27340 ft 503 kts 83°
2026-05-06 09:50 20.94485 107.86242 27712 ft 503 kts 83°
2026-05-06 09:50 20.94887 107.89904 28088 ft 502 kts 83°
2026-05-06 09:51 20.95293 107.93605 28454 ft 501 kts 83°
2026-05-06 09:51 20.95699 107.97301 28829 ft 500 kts 83°
2026-05-06 09:51 20.96106 108.00991 29204 ft 499 kts 83°
2026-05-06 09:51 20.96510 108.04677 29583 ft 498 kts 83°
2026-05-06 09:52 20.96911 108.08357 29959 ft 498 kts 83°
2026-05-06 09:52 20.97314 108.12034 30277 ft 497 kts 83°
2026-05-06 09:52 20.97715 108.15702 30584 ft 497 kts 83°
2026-05-06 09:52 20.98113 108.19376 30892 ft 497 kts 83°
2026-05-06 09:53 20.98501 108.22997 31192 ft 496 kts 82°
2026-05-06 09:53 20.98894 108.26666 31490 ft 496 kts 82°
2026-05-06 09:53 20.99247 108.30338 31798 ft 497 kts 83°
2026-05-06 09:53 20.99547 108.34019 32098 ft 497 kts 84°
2026-05-06 09:54 20.99810 108.37707 32409 ft 496 kts 84°
2026-05-06 09:54 21.00055 108.41389 32711 ft 496 kts 84°
2026-05-06 09:54 21.00303 108.45068 33020 ft 496 kts 84°
2026-05-06 09:54 21.00564 108.48744 33341 ft 495 kts 84°
2026-05-06 09:55 21.00835 108.52421 33648 ft 495 kts 84°
2026-05-06 09:55 21.01107 108.56039 33938 ft 495 kts 83°
2026-05-06 09:55 21.01386 108.59712 34207 ft 494 kts 83°
2026-05-06 09:55 21.01665 108.63374 34488 ft 494 kts 83°
2026-05-06 09:56 21.01943 108.67031 34747 ft 494 kts 84°
2026-05-06 09:56 21.02220 108.70700 34838 ft 495 kts 84°
2026-05-06 09:56 21.02766 108.78089 34860 ft 500 kts 84°
2026-05-06 09:57 21.03309 108.85506 34859 ft 500 kts 84°
2026-05-06 09:57 21.03848 108.92883 34860 ft 500 kts 84°
2026-05-06 09:58 21.04391 109.00301 34863 ft 500 kts 84°
2026-05-06 09:58 21.04928 109.07730 34868 ft 501 kts 84°
2026-05-06 09:59 21.05462 109.15160 34871 ft 501 kts 84°
2026-05-06 09:59 21.05993 109.22596 34876 ft 501 kts 84°
2026-05-06 10:00 21.06516 109.29988 34881 ft 501 kts 84°
2026-05-06 10:00 21.07034 109.37433 34883 ft 501 kts 84°
2026-05-06 10:01 21.07560 109.44876 34885 ft 501 kts 84°
2026-05-06 10:01 21.08081 109.52320 34888 ft 501 kts 84°
2026-05-06 10:02 21.08600 109.59756 34889 ft 501 kts 84°
2026-05-06 10:02 21.09108 109.67141 34888 ft 501 kts 84°
2026-05-06 10:03 21.09607 109.74575 34887 ft 500 kts 84°
2026-05-06 10:03 21.10102 109.82005 34890 ft 500 kts 85°
2026-05-06 10:04 21.10605 109.89435 34892 ft 500 kts 84°
2026-05-06 10:04 21.11109 109.96804 34895 ft 500 kts 85°
2026-05-06 10:05 21.11601 110.04212 34974 ft 498 kts 85°
2026-05-06 10:05 21.12087 110.11605 34980 ft 498 kts 85°
2026-05-06 10:06 21.12571 110.18988 34983 ft 496 kts 85°
2026-05-06 10:06 21.13044 110.26306 34981 ft 496 kts 85°
2026-05-06 10:07 21.13726 110.33639 34982 ft 494 kts 76°
2026-05-06 10:07 21.15691 110.40672 34991 ft 493 kts 70°
2026-05-06 10:08 21.17772 110.47679 35001 ft 494 kts 71°
2026-05-06 10:08 21.19819 110.54652 34999 ft 494 kts 71°
2026-05-06 10:09 21.21879 110.61680 35006 ft 495 kts 71°
2026-05-06 10:09 21.23950 110.68710 35005 ft 495 kts 71°
2026-05-06 10:10 21.26017 110.75742 35009 ft 495 kts 71°
2026-05-06 10:10 21.28071 110.82782 35021 ft 494 kts 71°
2026-05-06 10:11 21.30117 110.89765 35011 ft 494 kts 71°
2026-05-06 10:11 21.32184 110.96791 35006 ft 494 kts 71°
2026-05-06 10:12 21.34236 111.03830 35011 ft 495 kts 71°
2026-05-06 10:12 21.36277 111.10849 35012 ft 495 kts 71°
2026-05-06 10:13 21.38329 111.17900 35015 ft 495 kts 71°
2026-05-06 10:13 21.40369 111.24899 35016 ft 495 kts 71°
2026-05-06 10:14 21.42413 111.31962 35015 ft 496 kts 71°
2026-05-06 10:14 21.44456 111.39028 34657 ft 496 kts 71°
2026-05-06 10:15 21.45479 111.42561 34289 ft 495 kts 71°
2026-05-06 10:15 21.46499 111.46090 33937 ft 495 kts 71°
2026-05-06 10:15 21.47505 111.49576 33538 ft 496 kts 71°
2026-05-06 10:15 21.48523 111.53115 33143 ft 496 kts 71°
2026-05-06 10:16 21.49541 111.56657 32741 ft 496 kts 71°
2026-05-06 10:16 21.50559 111.60196 32348 ft 497 kts 71°
2026-05-06 10:16 21.51580 111.63743 31956 ft 497 kts 71°
2026-05-06 10:16 21.52595 111.67269 31568 ft 498 kts 71°
2026-05-06 10:17 21.53617 111.70826 31200 ft 498 kts 71°
2026-05-06 10:17 21.54639 111.74380 30823 ft 498 kts 71°
2026-05-06 10:17 21.55660 111.77940 30398 ft 499 kts 71°
2026-05-06 10:17 21.56664 111.81458 29963 ft 501 kts 71°
2026-05-06 10:18 21.57660 111.85049 29437 ft 504 kts 73°
2026-05-06 10:18 21.58591 111.88689 28909 ft 506 kts 74°
2026-05-06 10:18 21.59472 111.92359 28401 ft 508 kts 75°
2026-05-06 10:18 21.60326 111.96039 27862 ft 509 kts 75°
2026-05-06 10:19 21.61180 111.99740 27178 ft 511 kts 75°
2026-05-06 10:19 21.62045 112.03446 26387 ft 513 kts 75°
2026-05-06 10:19 21.62929 112.07162 25578 ft 515 kts 75°
2026-05-06 10:19 21.63820 112.10848 24738 ft 518 kts 75°
2026-05-06 10:20 21.64735 112.14599 23897 ft 518 kts 75°
2026-05-06 10:20 21.65647 112.18330 22970 ft 515 kts 76°
2026-05-06 10:20 21.66552 112.22050 21882 ft 515 kts 76°
2026-05-06 10:20 21.67437 112.25724 20903 ft 498 kts 76°
2026-05-06 10:21 21.68293 112.29289 19915 ft 488 kts 76°
2026-05-06 10:21 21.69131 112.32791 19052 ft 480 kts 76°
2026-05-06 10:21 21.69956 112.36241 18303 ft 473 kts 76°
2026-05-06 10:21 21.70769 112.39644 17517 ft 469 kts 76°
2026-05-06 10:22 21.71567 112.42973 16964 ft 464 kts 76°
2026-05-06 10:22 21.72367 112.46317 16438 ft 460 kts 76°
2026-05-06 10:22 21.73157 112.49630 15656 ft 456 kts 75°
2026-05-06 10:22 21.73941 112.52916 14860 ft 453 kts 75°
2026-05-06 10:23 21.74720 112.56178 14089 ft 446 kts 75°
2026-05-06 10:23 21.75484 112.59377 13313 ft 438 kts 75°
2026-05-06 10:23 21.76239 112.62536 12611 ft 434 kts 75°
2026-05-06 10:23 21.76986 112.65668 11923 ft 430 kts 75°
2026-05-06 10:24 21.77724 112.68768 11296 ft 425 kts 75°
2026-05-06 10:24 21.78432 112.71747 11146 ft 406 kts 75°
2026-05-06 10:24 21.79114 112.74623 11040 ft 388 kts 75°
2026-05-06 10:24 21.79764 112.77369 10920 ft 370 kts 75°
2026-05-06 10:25 21.80387 112.79997 10796 ft 355 kts 75°
2026-05-06 10:25 21.80986 112.82520 10679 ft 341 kts 75°
2026-05-06 10:25 21.81562 112.84945 10561 ft 328 kts 75°
2026-05-06 10:25 21.82119 112.87290 10381 ft 320 kts 75°
2026-05-06 10:26 21.82663 112.89585 10184 ft 313 kts 75°
2026-05-06 10:26 21.83200 112.91859 10048 ft 313 kts 76°
2026-05-06 10:26 21.83734 112.94128 9898 ft 313 kts 75°
2026-05-06 10:26 21.84263 112.96379 9453 ft 315 kts 76°
2026-05-06 10:27 21.84796 112.98652 9117 ft 311 kts 76°
2026-05-06 10:27 21.85322 113.00896 8885 ft 305 kts 76°
2026-05-06 10:27 21.85839 113.03101 8897 ft 306 kts 76°
2026-05-06 10:27 21.86365 113.05330 8900 ft 306 kts 76°
2026-05-06 10:28 21.86891 113.07548 8903 ft 306 kts 76°
2026-05-06 10:28 21.87418 113.09768 8903 ft 306 kts 76°
2026-05-06 10:28 21.87941 113.11986 8902 ft 306 kts 76°
2026-05-06 10:28 21.88463 113.14210 8903 ft 306 kts 76°
2026-05-06 10:29 21.88985 113.16432 8901 ft 306 kts 76°
2026-05-06 10:29 21.89499 113.18624 8902 ft 306 kts 76°
2026-05-06 10:29 21.90020 113.20851 8908 ft 307 kts 76°
2026-05-06 10:29 21.90540 113.23073 8908 ft 306 kts 76°
2026-05-06 10:30 21.91060 113.25300 8906 ft 306 kts 76°
2026-05-06 10:30 21.91747 113.27463 8905 ft 306 kts 63°
2026-05-06 10:30 21.92943 113.29345 8894 ft 306 kts 46°
2026-05-06 10:30 21.94565 113.30800 8671 ft 302 kts 29°
2026-05-06 10:31 21.96413 113.31857 8487 ft 300 kts 26°
2026-05-06 10:31 21.98261 113.32902 8289 ft 301 kts 26°
2026-05-06 10:31 22.00083 113.33947 8123 ft 300 kts 26°
2026-05-06 10:31 22.01917 113.35004 7931 ft 298 kts 26°
2026-05-06 10:32 22.03744 113.36058 7755 ft 297 kts 26°
2026-05-06 10:32 22.05567 113.37106 7572 ft 297 kts 26°
2026-05-06 10:32 22.07384 113.38152 7391 ft 296 kts 27°
2026-05-06 10:32 22.09202 113.39199 7210 ft 296 kts 27°
2026-05-06 10:33 22.11013 113.40243 7030 ft 295 kts 27°
2026-05-06 10:33 22.12818 113.41284 6851 ft 294 kts 27°
2026-05-06 10:33 22.14618 113.42322 6669 ft 293 kts 27°
2026-05-06 10:33 22.16394 113.43345 6497 ft 292 kts 27°
2026-05-06 10:34 22.18184 113.44375 6305 ft 291 kts 27°
2026-05-06 10:34 22.19960 113.45399 6126 ft 289 kts 27°
2026-05-06 10:34 22.21737 113.46423 5940 ft 289 kts 27°
2026-05-06 10:34 22.23501 113.47487 5575 ft 294 kts 30°
2026-05-06 10:35 22.25242 113.48635 5194 ft 293 kts 32°
2026-05-06 10:35 22.26944 113.49800 4883 ft 285 kts 33°
2026-05-06 10:35 22.28558 113.50917 4608 ft 271 kts 33°
2026-05-06 10:35 22.30103 113.51982 4474 ft 259 kts 33°
2026-05-06 10:36 22.31598 113.53009 4352 ft 248 kts 33°
2026-05-06 10:36 22.33018 113.53978 4261 ft 234 kts 32°
2026-05-06 10:36 22.34359 113.54888 4145 ft 223 kts 33°
2026-05-06 10:36 22.35557 113.55914 4043 ft 219 kts 51°
2026-05-06 10:37 22.36255 113.57337 3909 ft 212 kts 77°
2026-05-06 10:37 22.36380 113.58891 3708 ft 207 kts 94°
2026-05-06 10:37 22.36227 113.60415 3511 ft 201 kts 112°
2026-05-06 10:37 22.35496 113.61609 3328 ft 184 kts 140°
2026-05-06 10:38 22.34432 113.62239 3145 ft 172 kts 164°
2026-05-06 10:38 22.33317 113.62579 2980 ft 162 kts 164°
2026-05-06 10:38 22.32269 113.62906 2832 ft 153 kts 163°
2026-05-06 10:38 22.31255 113.63224 2699 ft 151 kts 164°
2026-05-06 10:39 22.30248 113.63541 2572 ft 150 kts 164°
2026-05-06 10:39 22.29254 113.63855 2464 ft 149 kts 163°
2026-05-06 10:39 22.28209 113.64056 2320 ft 158 kts 176°
2026-05-06 10:39 22.27105 113.63934 2168 ft 162 kts 192°
2026-05-06 10:40 22.26054 113.63466 2025 ft 166 kts 208°
2026-05-06 10:40 22.25175 113.62687 1971 ft 165 kts 223°
2026-05-06 10:40 22.24501 113.61739 1880 ft 156 kts 229°
2026-05-06 10:40 22.23859 113.60829 1818 ft 149 kts 227°
2026-05-06 10:41 22.23225 113.59939 1690 ft 150 kts 227°
2026-05-06 10:41 22.22592 113.59053 1458 ft 149 kts 226°
2026-05-06 10:41 22.21941 113.58195 1274 ft 145 kts 218°
2026-05-06 10:41 22.21116 113.57626 1080 ft 138 kts 194°
2026-05-06 10:42 22.20190 113.57418 923 ft 136 kts 178°
2026-05-06 10:42 22.19270 113.57542 739 ft 135 kts 160°
2026-05-06 10:42 22.18367 113.57868 559 ft 138 kts 160°
2026-05-06 10:42 22.17466 113.58198 389 ft 136 kts 158°
2026-05-06 10:43 22.16577 113.58534 166 ft 134 kts 156°
2026-05-06 10:43 22.15697 113.58865 30 ft 131 kts 158°
2026-05-06 10:43 22.14977 113.59133 29 ft 85 kts 161°
2026-05-06 10:44 22.14293 113.59385 28 ft 26 kts 163°
2026-05-06 10:44 22.14189 113.59410 29 ft 13 kts 186°
2026-05-06 10:44 22.14144 113.59344 29 ft 13 kts 255°
2026-05-06 10:44 22.14147 113.59257 29 ft 11 kts 309°
2026-05-06 10:45 22.14223 113.59228 29 ft 13 kts 342°
2026-05-06 10:45 22.14313 113.59191 28 ft 15 kts 339°
2026-05-06 10:45 22.14416 113.59151 28 ft 17 kts 341°
2026-05-06 10:45 22.14532 113.59109 28 ft 19 kts 341°
2026-05-06 10:46 22.14659 113.59061 29 ft 19 kts 341°
2026-05-06 10:46 22.14737 113.59020 29 ft 12 kts 316°
2026-05-06 10:46 22.14787 113.58939 29 ft 14 kts 303°
2026-05-06 10:46 22.14845 113.58846 29 ft 16 kts 304°
2026-05-06 10:47 22.14909 113.58743 29 ft 18 kts 304°
2026-05-06 10:47 22.14981 113.58628 29 ft 19 kts 303°
2026-05-06 10:47 22.15058 113.58501 29 ft 21 kts 303°
2026-05-06 10:47 22.15143 113.58365 29 ft 23 kts 304°
2026-05-06 10:48 22.15224 113.58234 29 ft 18 kts 303°
2026-05-06 10:48 22.15294 113.58119 29 ft 19 kts 303°
2026-05-06 10:48 22.15372 113.57994 29 ft 21 kts 304°
2026-05-06 10:48 22.15457 113.57860 29 ft 22 kts 306°
2026-05-06 10:49 22.15533 113.57735 29 ft 16 kts 302°
2026-05-06 10:49 22.15588 113.57644 29 ft 9 kts 303°
2026-05-06 10:49 22.15614 113.57590 29 ft 7 kts 280°
2026-05-06 10:49 22.15601 113.57547 29 ft 5 kts 235°
2026-05-06 10:50 22.15595 113.57521 29 ft 3 kts 284°
2026-05-06 10:50 22.15605 113.57507 29 ft 2 kts 313°
2026-05-06 10:50 22.15618 113.57499 29 ft 2 kts 332°
2026-05-06 10:50 22.15631 113.57489 29 ft 3 kts 324°
2026-05-06 10:51 22.15644 113.57479 29 ft 1 kts 325°
2026-05-06 10:51 22.15646 113.57478 29 ft 0 kts 325°